Location: Antichan
(42.9728°N, 0.6667°E)
Time: 13:22:11
(UTC+00:00)

Cosmos 192 - Pass Details

Date: 15 August 2020
Orbit: 701 x 713 km, 74.0° (Epoch: 24 September)

Event Time Altitude Azimuth Distance (km) Brightness Sun altitude
Rises 19:49:56 0° 342° (NNW) 3,100 8.4 -9.3°
Reaches altitude 10° 19:52:18 10° 346° (NNW) 2,179 7.5 -9.7°
Maximum altitude 19:57:10 61° 67° (ENE) 800 4.4 -10.5°
Enters shadow 20:01:40 12° 147° (SSE) 2,040 6.2 -11.2°
